This is the latest recevied weather packets stored in our database for station/object SP1BMW-13. If no packets are shown the sender has not sent any weather packets the latest 10 day(s).
| Time | Temp. | Humidity | Pressure | Rain* | Wind** | Luminosity | Snow |
|---|---|---|---|---|---|---|---|
| 1788005853 | 24.44° C | 52% | 1009.6 hPa | 0 mm | 0.45 m/s, 337° | 252 W/m² | - |
| 1788005780 | 24.44° C | 52% | 1009.4 hPa | 0 mm | 0.89 m/s, 224° | 727 W/m² | - |
| 1788005720 | 24.44° C | 51% | 1009.6 hPa | 0 mm | 1.79 m/s, 265° | 200 W/m² | - |
| 1788005660 | 24.44° C | 52% | 1009.4 hPa | 0 mm | 1.34 m/s, 117° | 445 W/m² | - |
| 1788005601 | 24.44° C | 51% | 1009.4 hPa | 0 mm | 1.79 m/s, 234° | 363 W/m² | - |
| 1788005541 | 23.89° C | 52% | 1009.6 hPa | 0 mm | 0.45 m/s, 154° | 756 W/m² | - |
| 1788005480 | 23.89° C | 53% | 1009.5 hPa | 0 mm | 0.89 m/s, 343° | 636 W/m² | - |
| 1788005421 | 23.89° C | 53% | 1009.6 hPa | 0 mm | 0.89 m/s, 120° | 254 W/m² | - |
| 1788005360 | 23.89° C | 52% | 1009.7 hPa | 0 mm | 0.45 m/s, 308° | 751 W/m² | - |
| 1788005300 | 23.89° C | 52% | 1009.5 hPa | 0 mm | 1.79 m/s, 109° | 197 W/m² | - |
| 1788005241 | 23.89° C | 53% | 1009.8 hPa | 0 mm | 0.45 m/s, 289° | 183 W/m² | - |
| 1788005180 | 23.89° C | 52% | 1009.7 hPa | 0 mm | 1.79 m/s, 278° | 240 W/m² | - |
| 1788005121 | 23.89° C | 53% | 1009.4 hPa | 0 mm | 1.34 m/s, 282° | 318 W/m² | - |
| 1788005060 | 23.89° C | 53% | 1009.4 hPa | 0 mm | 1.79 m/s, 298° | 757 W/m² | - |
| 1788005001 | 23.89° C | 53% | 1009.4 hPa | 0 mm | 1.34 m/s, 245° | 778 W/m² | - |
| 1788004941 | 24.44° C | 52% | 1009.5 hPa | 0 mm | 0.45 m/s, 194° | 301 W/m² | - |
| 1788004881 | 24.44° C | 53% | 1009.6 hPa | 0 mm | 0.45 m/s, 225° | 518 W/m² | - |
| 1788004821 | 24.44° C | 51% | 1009.6 hPa | 0 mm | 0.89 m/s, 218° | 201 W/m² | - |
| 1788004761 | 24.44° C | 52% | 1009.6 hPa | 0 mm | 0.89 m/s, 313° | 211 W/m² | - |
| 1788004701 | 24.44° C | 52% | 1009.5 hPa | 0 mm | 0.89 m/s, 271° | 226 W/m² | - |
| 1788004641 | 24.44° C | 51% | 1009.5 hPa | 0 mm | 0.89 m/s, 265° | 226 W/m² | - |
| 1788004581 | 24.44° C | 53% | 1009.7 hPa | 0 mm | 1.34 m/s, 242° | 219 W/m² | - |
| 1788004521 | 24.44° C | 52% | 1009.5 hPa | 0 mm | 0.45 m/s, 285° | 281 W/m² | - |
| 1788004462 | 24.44° C | 52% | 1009.5 hPa | 0 mm | 0.45 m/s, 354° | 213 W/m² | - |
| 1788004401 | 24.44° C | 52% | 1009.5 hPa | 0 mm | 0.89 m/s, 272° | 218 W/m² | - |
* Rain latest hour (hover to see other rain measurements)
** Current wind speed in m/s (hover to see current wind gust speed)